Seeley, CA

11:43 AM PDT on September 29, 2016 (GMT -0700)
El Centro Naval Air Facility

Weather History for KNJK - June, 2013

Change the Weather History Date:

Thursday, June 20, 2013

  Actual Average Record
Temperature  
Mean Temperature 85 °F -  
Max Temperature 104 °F 100 °F 120 °F (2016)
Min Temperature 68 °F 73 °F 66 °F (2003)
Cooling Degree Days 20    
Growing Degree Days 35 (Base 50)    
Moisture  
Dew Point 36 °F    
Average Humidity 18    
Maximum Humidity 43    
Minimum Humidity 7    
Precipitation  
Precipitation 0.00 in - - ()
Sea Level Pressure  
Sea Level Pressure 29.71 in    
Wind  
Wind Speed 8 mph (SSE)    
Max Wind Speed 18 mph    
Max Gust Speed -    
Visibility 10 miles    
Events      
Averages and records for this station are not official NWS values.
T = Trace of Precipitation, MM = Missing Value Source: NWS Daily Summary

Daily Weather History Graph

Daily Weather History Graph

Search for Another Location

Airport or City:

Trip Planner

Search our weather history database for the weather conditions in past years. The results will help you decide how hot, cold, wet, or windy it might be!

Date:

Astronomy

Jun. 20, 2013 Rise Set
Actual Time 5:34 AM PDT 7:53 PM PDT
Civil Twilight 5:06 AM PDT 8:22 PM PDT
Nautical Twilight 4:30 AM PDT 8:57 PM PDT
Astronomical Twilight 3:52 AM PDT 9:35 PM PDT
Moon 5:06 PM PDT (6/20) 2:57 AM PDT (6/20)
Length of Visible Light 15h 16m
Length of Day
14h 19m
Waxing Gibbous, 89% of the Moon is Illuminated
Jun 20
Waxing Gibbous
Jun 23
Full
Jun 29
Last Quarter
Jul 8
New
Jul 15
First Quarter

Hourly Weather History & Observations

Time (PDT) Temp. Heat Index Dew Point Humidity Pressure Visibility Wind Dir Wind Speed Gust Speed Precip Events Conditions
12:56 AM 81.0 °F - 24.1 °F 12% 29.69 in 10.0 mi North - - N/A   Clear
1:56 AM 79.0 °F - 25.0 °F 14% 29.68 in 10.0 mi North - - N/A   Clear
2:56 AM 73.0 °F - 25.0 °F 17% 29.68 in 10.0 mi North - - N/A   Clear
3:56 AM 69.1 °F - 30.9 °F 24% 29.69 in 10.0 mi North - - N/A   Clear
4:56 AM 68.0 °F - 30.9 °F 25% 29.70 in 10.0 mi North - - N/A   Clear
5:56 AM 69.1 °F - 35.1 °F 29% 29.72 in 10.0 mi South 8.1 mph - N/A   Clear
6:56 AM 75.0 °F - 50.0 °F 41% 29.74 in 10.0 mi ESE 4.6 mph - N/A   Clear
7:56 AM 80.1 °F 80.2 °F 55.9 °F 43% 29.75 in 9.0 mi SSE 6.9 mph - N/A   Clear
8:56 AM 84.0 °F 83.5 °F 57.9 °F 41% 29.76 in 10.0 mi ESE 8.1 mph - N/A   Clear
9:56 AM 89.1 °F - 48.0 °F 24% 29.77 in 10.0 mi ESE 6.9 mph - N/A   Clear
10:56 AM 93.9 °F - 42.1 °F 17% 29.77 in 10.0 mi East 4.6 mph - N/A   Clear
11:56 AM 96.1 °F - 37.0 °F 13% 29.76 in 10.0 mi Variable 3.5 mph - N/A   Clear
12:56 PM 98.1 °F - 34.0 °F 11% 29.74 in 10.0 mi Variable 4.6 mph - N/A   Clear
1:56 PM 100.0 °F - 35.1 °F 10% 29.72 in 10.0 mi Variable 5.8 mph - N/A   Clear
2:56 PM 102.9 °F - 28.9 °F 7% 29.70 in 10.0 mi East 6.9 mph - N/A   Clear
3:56 PM 102.9 °F - 32.0 °F 8% 29.68 in 10.0 mi East 6.9 mph - N/A   Clear
4:56 PM 102.9 °F - 32.0 °F 8% 29.66 in 10.0 mi East 5.8 mph - N/A   Clear
5:56 PM 102.9 °F - 35.1 °F 10% 29.65 in 10.0 mi ESE 6.9 mph - N/A   Clear
6:56 PM 100.0 °F - 32.0 °F 9% 29.66 in 10.0 mi SW 10.4 mph - N/A   Clear
7:56 PM 93.9 °F - 28.9 °F 10% 29.67 in 10.0 mi SW 8.1 mph - N/A   Clear
8:56 PM 91.0 °F - 32.0 °F 12% 29.69 in 10.0 mi WSW 15.0 mph - N/A   Clear
9:56 PM 88.0 °F - 34.0 °F 15% 29.71 in 10.0 mi West 18.4 mph - N/A   Clear
10:56 PM 84.9 °F - 35.1 °F 17% 29.72 in 10.0 mi West 16.1 mph - N/A   Clear
11:56 PM 84.0 °F - 32.0 °F 15% 29.73 in 10.0 mi WSW 15.0 mph - N/A   Clear